Time,TemperatureF,DewpointF,PressureIn,WindDirection,WindDirectionDegrees,WindSpeedMPH,WindSpeedGustMPH,Humidity,HourlyPrecipIn,Conditions,Clouds,dailyrainin,SoftwareType,DateUTC
2013-08-14 00:04:00,58.5,42.8,29.12,West,271,0.0,0.0,56,0.00,,---,0.00,VWS V14.00,2013-08-14 07:04:00,
2013-08-14 00:09:00,58.5,42.8,29.12,West,271,0.0,0.0,56,0.00,,---,0.00,VWS V14.00,2013-08-14 07:09:00,
2013-08-14 00:14:00,58.5,42.4,29.12,West,271,0.0,0.0,55,0.00,,---,0.00,VWS V14.00,2013-08-14 07:14:00,
2013-08-14 00:20:00,58.3,42.2,29.12,West,271,0.0,0.0,55,0.00,,---,0.00,VWS V14.00,2013-08-14 07:20:00,
2013-08-14 00:26:00,58.3,42.2,29.12,West,271,0.0,0.0,55,0.00,,---,0.00,VWS V14.00,2013-08-14 07:26:00,
2013-08-14 00:31:00,58.1,42.0,29.12,West,271,0.0,0.0,55,0.00,,---,0.00,VWS V14.00,2013-08-14 07:31:00,
2013-08-14 00:37:00,58.1,42.0,29.12,West,271,0.0,0.0,55,0.00,,---,0.00,VWS V14.00,2013-08-14 07:37:00,
2013-08-14 00:42:00,57.9,42.3,29.12,West,271,0.0,0.0,56,0.00,,---,0.00,VWS V14.00,2013-08-14 07:42:00,
2013-08-14 00:48:00,57.9,42.3,29.12,West,271,0.0,0.0,56,0.00,,---,0.00,VWS V14.00,2013-08-14 07:48:00,
2013-08-14 00:58:00,57.7,42.2,29.12,West,271,0.0,0.0,56,0.00,,---,0.00,VWS V14.00,2013-08-14 07:58:00,
2013-08-14 01:03:00,57.6,42.0,29.12,West,271,0.0,0.0,56,0.00,,---,0.00,VWS V14.00,2013-08-14 08:03:00,
2013-08-14 01:09:00,57.6,42.0,29.12,West,271,0.0,0.0,56,0.00,,---,0.00,VWS V14.00,2013-08-14 08:09:00,
2013-08-14 01:14:00,57.4,42.3,29.12,West,271,0.0,0.0,57,0.00,,---,0.00,VWS V14.00,2013-08-14 08:14:00,
2013-08-14 01:20:00,57.4,41.8,29.12,West,271,0.0,0.0,56,0.00,,---,0.00,VWS V14.00,2013-08-14 08:20:00,
2013-08-14 01:30:00,56.8,43.1,29.12,West,271,0.0,0.0,60,0.00,,---,0.00,VWS V14.00,2013-08-14 08:30:00,
2013-08-14 02:23:00,56.8,43.1,29.12,West,271,0.0,0.0,60,0.00,,---,0.00,VWS V14.00,2013-08-14 09:23:00,
2013-08-14 02:56:00,55.9,43.1,29.12,West,271,0.0,0.0,62,0.00,,---,0.00,VWS V14.00,2013-08-14 09:56:00,
2013-08-14 03:01:00,55.9,43.1,29.12,West,271,0.0,0.0,62,0.00,,---,0.00,VWS V14.00,2013-08-14 10:01:00,
2013-08-14 03:06:00,55.9,43.5,29.12,West,271,0.0,0.0,63,0.00,,---,0.00,VWS V14.00,2013-08-14 10:06:00,
2013-08-14 03:14:00,55.9,43.5,29.12,West,271,0.0,0.0,63,0.00,,---,0.00,VWS V14.00,2013-08-14 10:14:00,
2013-08-14 03:19:00,55.9,43.5,29.12,West,271,0.0,0.0,63,0.00,,---,0.00,VWS V14.00,2013-08-14 10:19:00,
2013-08-14 03:24:00,55.8,43.8,29.12,West,271,0.0,0.0,64,0.00,,---,0.00,VWS V14.00,2013-08-14 10:24:00,
2013-08-14 03:30:00,55.8,43.8,29.12,West,271,0.0,0.0,64,0.00,,---,0.00,VWS V14.00,2013-08-14 10:30:00,
2013-08-14 03:35:00,55.8,44.2,29.12,West,271,0.0,0.0,65,0.00,,---,0.00,VWS V14.00,2013-08-14 10:35:00,
2013-08-14 03:41:00,55.8,44.2,29.12,West,271,0.0,0.0,65,0.00,,---,0.00,VWS V14.00,2013-08-14 10:41:00,
2013-08-14 03:46:00,55.8,44.2,29.12,West,271,0.0,0.0,65,0.00,,---,0.00,VWS V14.00,2013-08-14 10:46:00,
2013-08-14 03:51:00,55.8,44.6,29.12,West,271,0.0,0.0,66,0.00,,---,0.00,VWS V14.00,2013-08-14 10:51:00,
2013-08-14 03:56:00,55.8,44.6,29.12,West,271,0.0,0.0,66,0.00,,---,0.00,VWS V14.00,2013-08-14 10:56:00,
2013-08-14 04:01:00,55.9,44.8,29.09,West,271,0.0,0.0,66,0.00,,---,0.00,VWS V14.00,2013-08-14 11:01:00,
2013-08-14 04:06:00,55.9,44.8,29.09,West,271,0.0,0.0,66,0.00,,---,0.00,VWS V14.00,2013-08-14 11:06:00,
2013-08-14 04:11:00,55.8,45.0,29.09,West,271,0.0,0.0,67,0.00,,---,0.00,VWS V14.00,2013-08-14 11:11:00,
2013-08-14 04:18:00,55.6,44.8,29.09,West,271,0.0,0.0,67,0.00,,---,0.00,VWS V14.00,2013-08-14 11:18:00,
2013-08-14 04:24:00,55.4,44.6,29.09,West,271,0.0,0.0,67,0.00,,---,0.00,VWS V14.00,2013-08-14 11:24:00,
2013-08-14 04:29:00,55.4,44.6,29.09,West,271,0.0,0.0,67,0.00,,---,0.00,VWS V14.00,2013-08-14 11:29:00,
2013-08-14 04:35:00,55.4,45.0,29.09,West,271,0.0,0.0,68,0.00,,---,0.00,VWS V14.00,2013-08-14 11:35:00,
2013-08-14 04:40:00,55.2,44.9,29.09,West,271,0.0,0.0,68,0.00,,---,0.00,VWS V14.00,2013-08-14 11:40:00,
2013-08-14 04:47:00,55.2,44.9,29.12,West,271,0.0,0.0,68,0.00,,---,0.00,VWS V14.00,2013-08-14 11:47:00,
2013-08-14 04:52:00,55.0,45.1,29.12,West,271,0.0,0.0,69,0.00,,---,0.00,VWS V14.00,2013-08-14 11:52:00,
2013-08-14 04:58:00,55.0,45.1,29.12,West,271,0.0,0.0,69,0.00,,---,0.00,VWS V14.00,2013-08-14 11:58:00,
2013-08-14 05:04:00,55.0,45.1,29.12,West,271,0.0,0.0,69,0.00,,---,0.00,VWS V14.00,2013-08-14 12:04:00,
2013-08-14 05:09:00,54.9,45.3,29.12,West,271,0.0,0.0,70,0.00,,---,0.00,VWS V14.00,2013-08-14 12:09:00,
2013-08-14 05:14:00,54.9,45.3,29.12,West,271,0.0,0.0,70,0.00,,---,0.00,VWS V14.00,2013-08-14 12:14:00,
2013-08-14 05:19:00,54.9,45.3,29.12,West,271,0.0,0.0,70,0.00,,---,0.00,VWS V14.00,2013-08-14 12:19:00,
2013-08-14 05:24:00,54.9,45.3,29.12,West,271,0.0,0.0,70,0.00,,---,0.00,VWS V14.00,2013-08-14 12:24:00,
2013-08-14 05:30:00,54.9,45.7,29.09,West,271,0.0,0.0,71,0.00,,---,0.00,VWS V14.00,2013-08-14 12:30:00,
2013-08-14 05:35:00,55.0,45.8,29.09,West,271,0.0,0.0,71,0.00,,---,0.00,VWS V14.00,2013-08-14 12:35:00,
2013-08-14 05:41:00,55.2,46.4,29.09,West,271,0.0,0.0,72,0.00,,---,0.00,VWS V14.00,2013-08-14 12:41:00,
2013-08-14 05:46:00,55.4,46.2,29.09,West,271,0.0,0.0,71,0.00,,---,0.00,VWS V14.00,2013-08-14 12:46:00,
2013-08-14 05:51:00,55.4,46.5,29.09,West,271,0.0,0.0,72,0.00,,---,0.00,VWS V14.00,2013-08-14 12:51:00,
2013-08-14 05:56:00,55.6,46.7,29.09,West,271,0.0,0.0,72,0.00,,---,0.00,VWS V14.00,2013-08-14 12:56:00,
2013-08-14 06:01:00,55.8,46.9,29.09,West,271,0.0,0.0,72,0.00,,---,0.00,VWS V14.00,2013-08-14 13:01:00,
2013-08-14 06:07:00,55.9,47.4,29.09,West,271,0.0,0.0,73,0.00,,---,0.00,VWS V14.00,2013-08-14 13:07:00,
2013-08-14 06:12:00,55.9,47.4,29.09,West,271,0.0,0.0,73,0.00,,---,0.00,VWS V14.00,2013-08-14 13:12:00,
2013-08-14 06:17:00,56.1,47.6,29.09,West,271,0.0,0.0,73,0.00,,---,0.00,VWS V14.00,2013-08-14 13:17:00,
2013-08-14 06:22:00,56.1,47.6,29.09,West,271,0.0,0.0,73,0.00,,---,0.00,VWS V14.00,2013-08-14 13:22:00,
2013-08-14 06:27:00,56.1,47.6,29.12,West,271,0.0,0.0,73,0.00,,---,0.00,VWS V14.00,2013-08-14 13:27:00,
2013-08-14 06:32:00,56.3,47.8,29.12,West,271,0.0,0.0,73,0.00,,---,0.00,VWS V14.00,2013-08-14 13:32:00,
2013-08-14 06:38:00,56.3,47.8,29.12,West,271,0.0,0.0,73,0.00,,---,0.00,VWS V14.00,2013-08-14 13:38:00,
2013-08-14 06:44:00,56.3,47.8,29.12,West,271,0.0,0.0,73,0.00,,---,0.00,VWS V14.00,2013-08-14 13:44:00,
2013-08-14 06:49:00,56.3,47.8,29.12,West,271,0.0,0.0,73,0.00,,---,0.00,VWS V14.00,2013-08-14 13:49:00,
2013-08-14 06:54:00,56.5,47.9,29.12,West,271,0.0,0.0,73,0.00,,---,0.00,VWS V14.00,2013-08-14 13:54:00,
2013-08-14 07:00:00,56.5,48.3,29.12,West,271,0.0,0.0,74,0.00,,---,0.00,VWS V14.00,2013-08-14 14:00:00,
2013-08-14 07:06:00,56.7,48.5,29.12,West,271,0.0,0.0,74,0.00,,---,0.00,VWS V14.00,2013-08-14 14:06:00,
2013-08-14 07:11:00,56.7,48.1,29.12,West,271,0.0,0.0,73,0.00,,---,0.00,VWS V14.00,2013-08-14 14:11:00,
2013-08-14 07:16:00,56.8,48.3,29.12,West,271,0.0,0.0,73,0.00,,---,0.00,VWS V14.00,2013-08-14 14:16:00,
2013-08-14 07:21:00,56.8,48.3,29.12,West,271,0.0,0.0,73,0.00,,---,0.00,VWS V14.00,2013-08-14 14:21:00,
2013-08-14 07:26:00,56.8,48.3,29.12,West,271,0.0,0.0,73,0.00,,---,0.00,VWS V14.00,2013-08-14 14:26:00,
2013-08-14 07:32:00,57.0,48.5,29.12,West,271,0.0,0.0,73,0.00,,---,0.00,VWS V14.00,2013-08-14 14:32:00,
2013-08-14 07:37:00,57.0,48.5,29.12,West,271,0.0,0.0,73,0.00,,---,0.00,VWS V14.00,2013-08-14 14:37:00,
2013-08-14 07:43:00,57.2,48.3,29.12,West,271,0.0,0.0,72,0.00,,---,0.00,VWS V14.00,2013-08-14 14:43:00,
2013-08-14 07:48:00,57.2,48.3,29.12,West,271,0.0,0.0,72,0.00,,---,0.00,VWS V14.00,2013-08-14 14:48:00,
2013-08-14 07:53:00,57.4,48.4,29.12,West,271,0.0,0.0,72,0.00,,---,0.00,VWS V14.00,2013-08-14 14:53:00,
2013-08-14 07:58:00,57.6,48.6,29.12,West,271,0.0,0.0,72,0.00,,---,0.00,VWS V14.00,2013-08-14 14:58:00,
2013-08-14 08:03:00,57.7,48.8,29.12,West,271,0.0,0.0,72,0.00,,---,0.00,VWS V14.00,2013-08-14 15:03:00,
2013-08-14 08:08:00,57.9,49.0,29.12,West,271,0.0,0.0,72,0.00,,---,0.00,VWS V14.00,2013-08-14 15:08:00,
2013-08-14 08:14:00,58.1,48.8,29.12,West,271,0.0,0.0,71,0.00,,---,0.00,VWS V14.00,2013-08-14 15:14:00,
2013-08-14 08:19:00,58.5,49.1,29.12,West,271,0.0,0.0,71,0.00,,---,0.00,VWS V14.00,2013-08-14 15:19:00,
2013-08-14 08:26:00,58.5,49.1,29.12,West,271,0.0,0.0,71,0.00,,---,0.00,VWS V14.00,2013-08-14 15:26:00,
2013-08-14 08:37:00,59.0,48.9,29.12,West,271,0.0,0.0,69,0.00,,---,0.00,VWS V14.00,2013-08-14 15:37:00,
2013-08-14 08:42:00,59.4,48.8,29.12,West,271,0.0,0.0,68,0.00,,---,0.00,VWS V14.00,2013-08-14 15:42:00,
2013-08-14 08:48:00,59.5,48.6,29.12,West,271,0.0,0.0,67,0.00,,---,0.00,VWS V14.00,2013-08-14 15:48:00,
2013-08-14 08:54:00,59.4,48.4,29.12,West,271,0.0,0.0,67,0.00,,---,0.00,VWS V14.00,2013-08-14 15:54:00,
2013-08-14 09:00:00,59.5,48.2,29.12,West,271,0.0,0.0,66,0.00,,---,0.00,VWS V14.00,2013-08-14 16:00:00,
2013-08-14 09:06:00,59.7,48.0,29.12,West,271,0.0,0.0,65,0.00,,---,0.00,VWS V14.00,2013-08-14 16:06:00,
2013-08-14 09:11:00,59.9,48.1,29.12,West,271,0.0,0.0,65,0.00,,---,0.00,VWS V14.00,2013-08-14 16:11:00,
2013-08-14 09:16:00,60.3,48.0,29.12,West,271,0.0,0.0,64,0.00,,---,0.00,VWS V14.00,2013-08-14 16:16:00,
2013-08-14 09:22:00,60.4,47.8,29.12,West,271,0.0,0.0,63,0.00,,---,0.00,VWS V14.00,2013-08-14 16:22:00,
2013-08-14 09:28:00,61.0,47.5,29.12,West,271,0.0,0.0,61,0.00,,---,0.00,VWS V14.00,2013-08-14 16:28:00,
2013-08-14 09:33:00,61.2,47.2,29.12,West,271,0.0,0.0,60,0.00,,---,0.00,VWS V14.00,2013-08-14 16:33:00,
2013-08-14 09:38:00,61.5,46.6,29.12,West,271,0.0,0.0,58,0.00,,---,0.00,VWS V14.00,2013-08-14 16:38:00,
2013-08-14 09:43:00,61.7,46.3,29.12,West,271,0.0,0.0,57,0.00,,---,0.00,VWS V14.00,2013-08-14 16:43:00,
2013-08-14 09:49:00,62.1,45.7,29.12,West,271,0.0,0.0,55,0.00,,---,0.00,VWS V14.00,2013-08-14 16:49:00,
2013-08-14 09:57:00,62.6,45.2,29.12,West,271,0.0,0.0,53,0.00,,---,0.00,VWS V14.00,2013-08-14 16:57:00,
2013-08-14 10:04:00,63.1,44.7,29.12,West,271,0.0,0.0,51,0.00,,---,0.00,VWS V14.00,2013-08-14 17:04:00,
2013-08-14 10:09:00,63.5,44.5,29.12,WSW,256,0.0,0.0,50,0.00,,---,0.00,VWS V14.00,2013-08-14 17:09:00,
2013-08-14 10:14:00,63.9,44.3,29.12,WSW,256,0.0,0.0,49,0.00,,---,0.00,VWS V14.00,2013-08-14 17:14:00,
2013-08-14 10:20:00,64.2,44.1,29.12,WSW,256,0.0,0.0,48,0.00,,---,0.00,VWS V14.00,2013-08-14 17:20:00,
2013-08-14 10:25:00,64.4,43.2,29.12,WSW,256,0.0,0.0,46,0.00,,---,0.00,VWS V14.00,2013-08-14 17:25:00,
2013-08-14 10:31:00,64.8,43.5,29.12,WSW,256,0.0,0.0,46,0.00,,---,0.00,VWS V14.00,2013-08-14 17:31:00,
2013-08-14 10:37:00,65.1,43.3,29.12,WSW,256,0.0,0.0,45,0.00,,---,0.00,VWS V14.00,2013-08-14 17:37:00,
2013-08-14 10:42:00,65.7,43.2,29.12,WSW,256,0.0,0.0,44,0.00,,---,0.00,VWS V14.00,2013-08-14 17:42:00,
2013-08-14 10:48:00,65.8,42.7,29.12,WSW,256,0.0,0.0,43,0.00,,---,0.00,VWS V14.00,2013-08-14 17:48:00,
2013-08-14 10:53:00,66.2,43.1,29.12,WSW,256,0.0,0.0,43,0.00,,---,0.00,VWS V14.00,2013-08-14 17:53:00,
2013-08-14 10:58:00,66.4,42.6,29.12,WSW,256,0.0,0.0,42,0.00,,---,0.00,VWS V14.00,2013-08-14 17:58:00,
2013-08-14 11:03:00,66.7,42.3,29.12,WSW,256,0.0,0.0,41,0.00,,---,0.00,VWS V14.00,2013-08-14 18:03:00,
2013-08-14 11:11:00,67.1,42.0,29.12,WSW,256,0.0,0.0,40,0.00,,---,0.00,VWS V14.00,2013-08-14 18:11:00,
2013-08-14 11:16:00,67.3,41.5,29.12,WSW,256,0.0,0.0,39,0.00,,---,0.00,VWS V14.00,2013-08-14 18:16:00,
2013-08-14 11:21:00,67.8,41.3,29.12,WSW,256,0.0,0.0,38,0.00,,---,0.00,VWS V14.00,2013-08-14 18:21:00,
2013-08-14 11:27:00,68.0,40.8,29.12,WSW,256,0.0,0.0,37,0.00,,---,0.00,VWS V14.00,2013-08-14 18:27:00,
2013-08-14 11:32:00,68.4,40.4,29.12,WSW,256,0.0,0.0,36,0.00,,---,0.00,VWS V14.00,2013-08-14 18:32:00,
2013-08-14 11:37:00,68.5,39.8,29.12,WSW,256,0.0,0.0,35,0.00,,---,0.00,VWS V14.00,2013-08-14 18:37:00,
2013-08-14 11:42:00,69.1,40.3,29.12,WSW,256,0.0,0.0,35,0.00,,---,0.00,VWS V14.00,2013-08-14 18:42:00,
2013-08-14 11:47:00,69.4,40.6,29.12,WSW,256,0.0,0.0,35,0.00,,---,0.00,VWS V14.00,2013-08-14 18:47:00,
2013-08-14 11:54:00,69.8,40.9,29.12,WSW,256,0.0,0.0,35,0.00,,---,0.00,VWS V14.00,2013-08-14 18:54:00,
2013-08-14 12:01:00,70.2,39.7,29.12,WSW,256,0.0,0.0,33,0.00,,---,0.00,VWS V14.00,2013-08-14 19:01:00,
2013-08-14 12:14:00,71.2,40.7,29.12,WSW,256,0.0,0.0,33,0.00,,---,0.00,VWS V14.00,2013-08-14 19:14:00,
2013-08-14 12:19:00,71.6,40.2,29.12,WSW,256,0.0,0.0,32,0.00,,---,0.00,VWS V14.00,2013-08-14 19:19:00,
2013-08-14 12:25:00,72.3,40.8,29.12,WSW,256,0.0,0.0,32,0.00,,---,0.00,VWS V14.00,2013-08-14 19:25:00,
2013-08-14 12:31:00,72.9,41.3,29.12,WSW,256,0.0,0.0,32,0.00,,---,0.00,VWS V14.00,2013-08-14 19:31:00,
2013-08-14 12:36:00,73.6,41.1,29.12,WSW,256,0.0,0.0,31,0.00,,---,0.00,VWS V14.00,2013-08-14 19:36:00,
2013-08-14 12:42:00,74.3,40.0,29.12,WSW,256,0.0,0.0,29,0.00,,---,0.00,VWS V14.00,2013-08-14 19:42:00,
2013-08-14 12:48:00,75.2,39.0,29.12,West,274,0.0,0.0,27,0.00,,---,0.00,VWS V14.00,2013-08-14 19:48:00,
2013-08-14 12:54:00,75.7,37.5,29.12,West,274,0.0,0.0,25,0.00,,---,0.00,VWS V14.00,2013-08-14 19:54:00,
2013-08-14 12:59:00,76.3,36.9,29.12,West,274,0.0,0.0,24,0.00,,---,0.00,VWS V14.00,2013-08-14 19:59:00,
2013-08-14 13:05:00,77.2,36.5,29.12,West,274,0.0,0.0,23,0.00,,---,0.00,VWS V14.00,2013-08-14 20:05:00,
2013-08-14 13:12:00,78.1,36.2,29.12,West,274,0.0,0.0,22,0.00,,---,0.00,VWS V14.00,2013-08-14 20:12:00,
2013-08-14 13:17:00,78.8,35.6,29.12,West,274,0.0,0.0,21,0.00,,---,0.00,VWS V14.00,2013-08-14 20:17:00,
2013-08-14 13:24:00,79.5,36.2,29.12,West,274,0.0,0.0,21,0.00,,---,0.00,VWS V14.00,2013-08-14 20:24:00,
2013-08-14 13:30:00,80.6,35.9,29.12,West,274,0.0,0.0,20,0.00,,---,0.00,VWS V14.00,2013-08-14 20:30:00,
2013-08-14 13:36:00,81.5,36.6,29.12,West,274,0.0,0.0,20,0.00,,---,0.00,VWS V14.00,2013-08-14 20:36:00,
2013-08-14 13:41:00,82.0,35.8,29.12,West,274,0.0,0.0,19,0.00,,---,0.00,VWS V14.00,2013-08-14 20:41:00,
2013-08-14 13:46:00,82.6,36.2,29.12,West,274,0.0,0.0,19,0.00,,---,0.00,VWS V14.00,2013-08-14 20:46:00,
2013-08-14 13:52:00,83.1,36.6,29.12,West,274,0.0,0.0,19,0.00,,---,0.00,VWS V14.00,2013-08-14 20:52:00,
2013-08-14 13:58:00,83.5,32.6,29.12,West,274,0.0,0.0,16,0.00,,---,0.00,VWS V14.00,2013-08-14 20:58:00,
2013-08-14 14:04:00,83.5,32.6,29.12,West,274,0.0,0.0,16,0.00,,---,0.00,VWS V14.00,2013-08-14 21:04:00,
2013-08-14 14:09:00,83.7,32.8,29.12,West,274,0.0,0.0,16,0.00,,---,0.00,VWS V14.00,2013-08-14 21:09:00,
2013-08-14 14:15:00,83.5,32.6,29.12,West,274,0.0,0.0,16,0.00,,---,0.00,VWS V14.00,2013-08-14 21:15:00,
2013-08-14 14:20:00,83.3,32.5,29.12,West,274,0.0,0.0,16,0.00,,---,0.00,VWS V14.00,2013-08-14 21:20:00,
2013-08-14 14:26:00,82.9,32.2,29.12,West,274,0.0,0.0,16,0.00,,---,0.00,VWS V14.00,2013-08-14 21:26:00,
2013-08-14 14:31:00,82.8,32.0,29.12,West,274,0.0,0.0,16,0.00,,---,0.00,VWS V14.00,2013-08-14 21:31:00,
2013-08-14 14:37:00,82.6,31.9,29.12,West,274,0.0,0.0,16,0.00,,---,0.00,VWS V14.00,2013-08-14 21:37:00,
2013-08-14 14:42:00,82.2,33.1,29.09,West,274,0.0,0.0,17,0.00,,---,0.00,VWS V14.00,2013-08-14 21:42:00,
2013-08-14 14:48:00,81.5,32.5,29.09,West,274,0.0,0.0,17,0.00,,---,0.00,VWS V14.00,2013-08-14 21:48:00,
2013-08-14 14:53:00,81.1,35.0,29.09,West,274,0.0,0.0,19,0.00,,---,0.00,VWS V14.00,2013-08-14 21:53:00,
2013-08-14 14:58:00,80.8,34.7,29.09,West,274,0.0,0.0,19,0.00,,---,0.00,VWS V14.00,2013-08-14 21:58:00,
2013-08-14 15:05:00,80.1,35.4,29.09,West,274,0.0,0.0,20,0.00,,---,0.00,VWS V14.00,2013-08-14 22:05:00,
2013-08-14 15:10:00,79.7,35.1,29.09,West,274,0.0,0.0,20,0.00,,---,0.00,VWS V14.00,2013-08-14 22:10:00,
2013-08-14 15:16:00,79.3,34.8,29.09,West,274,0.0,0.0,20,0.00,,---,0.00,VWS V14.00,2013-08-14 22:16:00,
2013-08-14 15:22:00,78.8,34.4,29.09,West,274,0.0,0.0,20,0.00,,---,0.00,VWS V14.00,2013-08-14 22:22:00,
2013-08-14 15:28:00,78.6,34.2,29.09,West,274,0.0,0.0,20,0.00,,---,0.00,VWS V14.00,2013-08-14 22:28:00,
2013-08-14 15:34:00,78.1,35.0,29.09,West,274,0.0,0.0,21,0.00,,---,0.00,VWS V14.00,2013-08-14 22:34:00,
2013-08-14 15:44:00,77.2,34.3,29.09,West,274,0.0,0.0,21,0.00,,---,0.00,VWS V14.00,2013-08-14 22:44:00,
2013-08-14 15:50:00,76.8,35.1,29.09,West,274,0.0,0.0,22,0.00,,---,0.00,VWS V14.00,2013-08-14 22:50:00,
2013-08-14 15:56:00,76.5,34.8,29.09,West,274,0.0,0.0,22,0.00,,---,0.00,VWS V14.00,2013-08-14 22:56:00,
2013-08-14 16:01:00,76.3,34.7,29.09,West,274,0.0,0.0,22,0.00,,---,0.00,VWS V14.00,2013-08-14 23:01:00,
2013-08-14 16:07:00,76.1,34.5,29.09,West,274,0.0,0.0,22,0.00,,---,0.00,VWS V14.00,2013-08-14 23:07:00,
2013-08-14 16:12:00,75.7,34.2,29.09,West,274,0.0,0.0,22,0.00,,---,0.00,VWS V14.00,2013-08-14 23:12:00,
2013-08-14 16:18:00,75.6,34.1,29.09,West,274,0.0,0.0,22,0.00,,---,0.00,VWS V14.00,2013-08-14 23:18:00,
2013-08-14 16:24:00,75.6,35.2,29.09,West,274,0.0,0.0,23,0.00,,---,0.00,VWS V14.00,2013-08-14 23:24:00,
2013-08-14 16:29:00,75.4,36.1,29.09,West,274,0.0,0.0,24,0.00,,---,0.00,VWS V14.00,2013-08-14 23:29:00,
2013-08-14 16:34:00,75.4,36.1,29.09,West,274,0.0,0.0,24,0.00,,---,0.00,VWS V14.00,2013-08-14 23:34:00,
2013-08-14 16:40:00,75.2,37.0,29.09,West,274,0.0,0.0,25,0.00,,---,0.00,VWS V14.00,2013-08-14 23:40:00,
2013-08-14 16:46:00,75.0,37.8,29.09,West,274,0.0,0.0,26,0.00,,---,0.00,VWS V14.00,2013-08-14 23:46:00,
2013-08-14 16:56:00,74.7,40.3,29.09,West,274,0.0,0.0,29,0.00,,---,0.00,VWS V14.00,2013-08-14 23:56:00,
2013-08-14 17:02:00,74.3,40.9,29.09,West,274,0.0,0.0,30,0.00,,---,0.00,VWS V14.00,2013-08-15 00:02:00,
2013-08-14 17:08:00,73.9,41.4,29.09,West,274,0.0,0.0,31,0.00,,---,0.00,VWS V14.00,2013-08-15 00:08:00,
2013-08-14 17:22:00,73.0,41.5,29.09,West,274,0.0,0.0,32,0.00,,---,0.00,VWS V14.00,2013-08-15 00:22:00,
2013-08-14 17:28:00,72.7,42.0,29.09,West,274,0.0,0.0,33,0.00,,---,0.00,VWS V14.00,2013-08-15 00:28:00,
2013-08-14 17:33:00,72.3,41.6,29.09,West,274,0.0,0.0,33,0.00,,---,0.00,VWS V14.00,2013-08-15 00:33:00,
2013-08-14 17:38:00,72.1,41.5,29.09,West,274,0.0,0.0,33,0.00,,---,0.00,VWS V14.00,2013-08-15 00:38:00,
2013-08-14 17:44:00,71.8,41.2,29.09,West,274,0.0,0.0,33,0.00,,---,0.00,VWS V14.00,2013-08-15 00:44:00,
2013-08-14 17:49:00,71.2,42.2,29.09,West,274,0.0,0.0,35,0.00,,---,0.00,VWS V14.00,2013-08-15 00:49:00,
2013-08-14 17:55:00,70.7,42.5,29.09,West,274,0.0,0.0,36,0.00,,---,0.00,VWS V14.00,2013-08-15 00:55:00,
2013-08-14 18:01:00,70.2,43.4,29.09,West,274,0.0,0.0,38,0.00,,---,0.00,VWS V14.00,2013-08-15 01:01:00,
2013-08-14 18:06:00,70.0,43.2,29.09,West,274,0.0,0.0,38,0.00,,---,0.00,VWS V14.00,2013-08-15 01:06:00,
2013-08-14 18:12:00,69.6,44.2,29.09,West,274,0.0,0.0,40,0.00,,---,0.00,VWS V14.00,2013-08-15 01:12:00,
2013-08-14 18:18:00,69.3,44.6,29.09,West,274,0.0,0.0,41,0.00,,---,0.00,VWS V14.00,2013-08-15 01:18:00,
2013-08-14 18:24:00,69.1,45.0,29.09,West,274,0.0,0.0,42,0.00,,---,0.00,VWS V14.00,2013-08-15 01:24:00,
2013-08-14 18:32:00,68.5,44.6,29.09,West,274,0.0,0.0,42,0.00,,---,0.00,VWS V14.00,2013-08-15 01:32:00,
2013-08-14 18:38:00,68.4,45.0,29.09,West,274,0.0,0.0,43,0.00,,---,0.00,VWS V14.00,2013-08-15 01:38:00,
2013-08-14 18:45:00,68.2,44.9,29.09,West,274,0.0,0.0,43,0.00,,---,0.00,VWS V14.00,2013-08-15 01:45:00,
2013-08-14 18:59:00,67.8,45.1,29.09,North,0,0.0,0.0,44,0.00,,---,0.00,VWS V14.00,2013-08-15 01:59:00,
2013-08-14 19:04:00,67.6,45.0,29.09,North,0,0.0,0.0,44,0.00,,---,0.00,VWS V14.00,2013-08-15 02:04:00,
2013-08-14 19:09:00,67.5,44.8,29.09,North,0,0.0,0.0,44,0.00,,---,0.00,VWS V14.00,2013-08-15 02:09:00,
2013-08-14 19:14:00,67.5,45.4,29.09,North,0,0.0,0.0,45,0.00,,---,0.00,VWS V14.00,2013-08-15 02:14:00,
2013-08-14 19:19:00,67.3,45.2,29.09,North,0,0.0,0.0,45,0.00,,---,0.00,VWS V14.00,2013-08-15 02:19:00,
2013-08-14 19:25:00,67.3,45.2,29.09,North,0,0.0,0.0,45,0.00,,---,0.00,VWS V14.00,2013-08-15 02:25:00,
2013-08-14 19:31:00,66.9,44.9,29.09,North,0,0.0,0.0,45,0.00,,---,0.00,VWS V14.00,2013-08-15 02:31:00,
2013-08-14 19:36:00,66.7,45.3,29.09,North,0,0.0,0.0,46,0.00,,---,0.00,VWS V14.00,2013-08-15 02:36:00,
2013-08-14 19:41:00,66.6,45.2,29.09,North,0,0.0,0.0,46,0.00,,---,0.00,VWS V14.00,2013-08-15 02:41:00,
2013-08-14 19:46:00,66.4,45.0,29.09,North,0,0.0,0.0,46,0.00,,---,0.00,VWS V14.00,2013-08-15 02:46:00,
2013-08-14 19:51:00,66.2,45.4,29.09,North,0,0.0,0.0,47,0.00,,---,0.00,VWS V14.00,2013-08-15 02:51:00,
2013-08-14 19:57:00,65.8,45.6,29.09,North,0,0.0,0.0,48,0.00,,---,0.00,VWS V14.00,2013-08-15 02:57:00,
2013-08-14 20:02:00,65.5,45.3,29.09,North,0,0.0,0.0,48,0.00,,---,0.00,VWS V14.00,2013-08-15 03:02:00,
2013-08-14 20:08:00,65.3,45.7,29.09,North,0,0.0,0.0,49,0.00,,---,0.00,VWS V14.00,2013-08-15 03:08:00,
2013-08-14 20:13:00,65.1,46.0,29.09,North,0,0.0,0.0,50,0.00,,---,0.00,VWS V14.00,2013-08-15 03:13:00,
2013-08-14 20:14:00,64.9,46.4,29.09,North,0,0.0,0.0,51,0.00,,---,0.00,VWS V14.00,2013-08-15 03:14:00,
2013-08-14 20:19:00,64.8,46.2,29.09,North,0,0.0,0.0,51,0.00,,---,0.00,VWS V14.00,2013-08-15 03:19:00,
2013-08-14 20:24:00,64.6,46.6,29.09,North,0,0.0,0.0,52,0.00,,---,0.00,VWS V14.00,2013-08-15 03:24:00,
2013-08-14 20:30:00,64.6,46.6,29.09,North,0,0.0,0.0,52,0.00,,---,0.00,VWS V14.00,2013-08-15 03:30:00,
2013-08-14 20:36:00,64.6,47.1,29.09,North,0,0.0,0.0,53,0.00,,---,0.00,VWS V14.00,2013-08-15 03:36:00,
2013-08-14 20:41:00,64.6,47.1,29.09,North,0,0.0,0.0,53,0.00,,---,0.00,VWS V14.00,2013-08-15 03:41:00,
2013-08-14 20:53:00,64.2,47.7,29.09,North,0,0.0,0.0,55,0.00,,---,0.00,VWS V14.00,2013-08-15 03:53:00,
2013-08-14 20:58:00,64.2,48.2,29.09,North,0,0.0,0.0,56,0.00,,---,0.00,VWS V14.00,2013-08-15 03:58:00,
2013-08-14 21:02:00,64.2,48.2,29.09,North,0,0.0,0.0,56,0.00,,---,0.00,VWS V14.00,2013-08-15 04:02:00,
2013-08-14 21:03:00,64.2,48.2,29.09,North,0,0.0,0.0,56,0.00,,---,0.00,VWS V14.00,2013-08-15 04:03:00,
2013-08-14 21:09:00,64.0,48.0,29.09,North,0,0.0,0.0,56,0.00,,---,0.00,VWS V14.00,2013-08-15 04:09:00,
2013-08-14 21:13:00,64.0,48.5,29.09,North,0,0.0,0.0,57,0.00,,---,0.00,VWS V14.00,2013-08-15 04:13:00,
2013-08-14 21:15:00,63.9,48.3,29.09,North,0,0.0,0.0,57,0.00,,---,0.00,VWS V14.00,2013-08-15 04:15:00,
2013-08-14 21:20:00,63.9,48.8,29.09,North,0,0.0,0.0,58,0.00,,---,0.00,VWS V14.00,2013-08-15 04:20:00,
2013-08-14 21:26:00,63.9,48.8,29.09,North,0,0.0,0.0,58,0.00,,---,0.00,VWS V14.00,2013-08-15 04:26:00,
2013-08-14 21:32:00,63.9,49.3,29.09,North,0,0.0,0.0,59,0.00,,---,0.00,VWS V14.00,2013-08-15 04:32:00,
2013-08-14 21:38:00,63.9,49.3,29.09,North,0,0.0,0.0,59,0.00,,---,0.00,VWS V14.00,2013-08-15 04:38:00,
2013-08-14 21:50:00,63.9,49.7,29.09,North,0,0.0,0.0,60,0.00,,---,0.00,VWS V14.00,2013-08-15 04:50:00,
2013-08-14 21:56:00,63.9,49.7,29.09,North,0,0.0,0.0,60,0.00,,---,0.00,VWS V14.00,2013-08-15 04:56:00,
2013-08-14 22:02:00,63.9,49.7,29.09,North,0,0.0,0.0,60,0.00,,---,0.00,VWS V14.00,2013-08-15 05:02:00,
2013-08-14 22:07:00,64.0,49.9,29.09,North,0,0.0,0.0,60,0.00,,---,0.00,VWS V14.00,2013-08-15 05:07:00,
2013-08-14 22:13:00,64.0,49.9,29.09,North,0,0.0,0.0,60,0.00,,---,0.00,VWS V14.00,2013-08-15 05:13:00,
2013-08-14 22:19:00,64.0,49.9,29.09,North,0,0.0,0.0,60,0.00,,---,0.00,VWS V14.00,2013-08-15 05:19:00,
2013-08-14 22:24:00,64.0,49.9,29.09,North,0,0.0,0.0,60,0.00,,---,0.00,VWS V14.00,2013-08-15 05:24:00,
2013-08-14 22:30:00,63.9,50.2,29.09,North,0,0.0,0.0,61,0.00,,---,0.00,VWS V14.00,2013-08-15 05:30:00,
2013-08-14 22:36:00,63.9,50.2,29.09,North,0,0.0,0.0,61,0.00,,---,0.00,VWS V14.00,2013-08-15 05:36:00,
2013-08-14 22:42:00,64.0,50.3,29.09,North,0,0.0,0.0,61,0.00,,---,0.00,VWS V14.00,2013-08-15 05:42:00,
2013-08-14 22:48:00,64.0,50.3,29.09,North,0,0.0,0.0,61,0.00,,---,0.00,VWS V14.00,2013-08-15 05:48:00,
2013-08-14 22:53:00,64.0,50.3,29.09,North,0,0.0,0.0,61,0.00,,---,0.00,VWS V14.00,2013-08-15 05:53:00,
2013-08-14 22:59:00,64.0,50.3,29.09,North,0,0.0,0.0,61,0.00,,---,0.00,VWS V14.00,2013-08-15 05:59:00,
2013-08-14 23:05:00,64.0,50.3,29.09,North,0,0.0,0.0,61,0.00,,---,0.00,VWS V14.00,2013-08-15 06:05:00,
2013-08-14 23:10:00,63.9,50.2,29.09,North,0,0.0,0.0,61,0.00,,---,0.00,VWS V14.00,2013-08-15 06:10:00,
2013-08-14 23:16:00,63.9,50.2,29.09,North,0,0.0,0.0,61,0.00,,---,0.00,VWS V14.00,2013-08-15 06:16:00,
2013-08-14 23:38:00,63.9,51.0,29.09,North,0,0.0,0.0,63,0.00,,---,0.00,VWS V14.00,2013-08-15 06:38:00,
2013-08-14 23:43:00,63.7,50.9,29.09,North,0,0.0,0.0,63,0.00,,---,0.00,VWS V14.00,2013-08-15 06:43:00,
2013-08-14 23:48:00,63.7,50.9,29.09,North,0,0.0,0.0,63,0.00,,---,0.00,VWS V14.00,2013-08-15 06:48:00,
2013-08-14 23:58:00,63.5,50.7,29.09,North,0,0.0,0.0,63,0.00,,---,0.00,VWS V14.00,2013-08-15 06:58:00,